When you browse on this site, cookies collect data to enhance your experience and personalize the content and advertising you see.
Visit our Privacy Policy to learn more. By continuing to use the site, you agree to this use of cookies and data.
  • In United Kingdom
  • List of Countries
  • For 7 days
  • Water Temperature
  • Weather Map
  • Weather Widgets
  • user-avatar
    Login

    Hourly Weather Aberdour

    Today, 26 February, Wednesday

    Time Temperature Precipitation Wind Pressure Humidity
    00:00 -1°C° 0 mm 2 mps 733 mmHg 91%
    01:00 -1°C° 0 mm 2 mps 733 mmHg 91%
    02:00 -2°C° 0 mm 2 mps 733 mmHg 90%
    03:00 -2°C° 0 mm 2 mps 733 mmHg 90%
    04:00 -2°C° 0 mm 2 mps 734 mmHg 89%
    05:00 -2°C° 0 mm 2 mps 735 mmHg 89%
    06:00 -2°C° 0 mm 2 mps 735 mmHg 88%
    07:00 -1°C° 0 mm 3 mps 736 mmHg 85%
    08:00 0°C° 0 mm 3 mps 736 mmHg 82%
    09:00 -1°C° 0 mm 4 mps 737 mmHg 79%
    10:00 0°C° 0 mm 5 mps 738 mmHg 74%
    11:00 +1°C° 0 mm 6 mps 738 mmHg 69%
    12:00 +2°C° 0 mm 7 mps 739 mmHg 64%
    13:00 +2°C° 0 mm 7 mps 739 mmHg 61%
    14:00 +2°C° 0 mm 7 mps 739 mmHg 59%
    15:00 +2°C° 0 mm 6 mps 739 mmHg 57%
    16:00 +1°C° 0 mm 6 mps 739 mmHg 63%
    17:00 0°C° 0 mm 5 mps 739 mmHg 69%
    18:00 -1°C° 0 mm 4 mps 739 mmHg 75%
    19:00 -1°C° 0 mm 4 mps 739 mmHg 79%
    20:00 -2°C° 0 mm 4 mps 738 mmHg 83%
    21:00 -2°C° 0 mm 4 mps 738 mmHg 87%
    22:00 -2°C° 0 mm 4 mps 738 mmHg 87%
    23:00 -2°C° 0 mm 4 mps 737 mmHg 87%

    Tomorrow, 27 February, Thursday

    Time Temperature Precipitation Wind Pressure Humidity
    00:00 -2°C° 0 mm 4 mps 737 mmHg 87%
    01:00 -1°C° 0 mm 3 mps 736 mmHg 88%
    02:00 -1°C° 0 mm 3 mps 735 mmHg 89%
    03:00 -1°C° 0 mm 3 mps 735 mmHg 89%
    04:00 -1°C° 0.1 mm 3 mps 735 mmHg 91%
    05:00 -1°C° 0.1 mm 2 mps 734 mmHg 93%
    06:00 -1°C° 0.1 mm 2 mps 734 mmHg 95%
    07:00 -1°C° 0.1 mm 3 mps 734 mmHg 92%
    08:00 0°C° 0.1 mm 3 mps 734 mmHg 89%
    09:00 -1°C° 0.1 mm 4 mps 734 mmHg 86%
    10:00 0°C° 0 mm 4 mps 734 mmHg 78%
    11:00 +1°C° 0 mm 5 mps 735 mmHg 70%
    12:00 +2°C° 0 mm 6 mps 735 mmHg 62%
    13:00 +2°C° 0 mm 6 mps 735 mmHg 63%
    14:00 +2°C° 0 mm 6 mps 736 mmHg 65%
    15:00 +2°C° 0 mm 6 mps 736 mmHg 67%
    16:00 +1°C° 0 mm 6 mps 737 mmHg 70%
    17:00 0°C° 0 mm 5 mps 737 mmHg 74%
    18:00 0°C° 0 mm 5 mps 738 mmHg 77%
    19:00 -1°C° 0 mm 5 mps 739 mmHg 79%
    20:00 -2°C° 0 mm 6 mps 739 mmHg 81%
    21:00 -2°C° 0 mm 6 mps 740 mmHg 83%
    22:00 -2°C° 0 mm 6 mps 740 mmHg 82%
    23:00 -1°C° 0 mm 5 mps 741 mmHg 82%

    Day after tomorrow, 28 February, Friday

    Time Temperature Precipitation Wind Pressure Humidity
    00:00 -1°C° 0 mm 5 mps 741 mmHg 81%
    01:00 -1°C° 0 mm 5 mps 741 mmHg 83%
    02:00 -2°C° 0 mm 4 mps 741 mmHg 84%
    03:00 -2°C° 0 mm 4 mps 741 mmHg 86%
    04:00 -2°C° 0 mm 4 mps 741 mmHg 87%
    05:00 -1°C° 0 mm 4 mps 741 mmHg 89%
    06:00 -1°C° 0 mm 4 mps 741 mmHg 91%
    07:00 0°C° 0 mm 4 mps 741 mmHg 88%
    08:00 0°C° 0 mm 5 mps 741 mmHg 85%
    09:00 0°C° 0 mm 5 mps 741 mmHg 83%
    10:00 +1°C° 0 mm 5 mps 741 mmHg 80%
    11:00 +2°C° 0 mm 5 mps 741 mmHg 77%
    12:00 +3°C° 0 mm 5 mps 741 mmHg 75%
    13:00 +4°C° 0 mm 4 mps 740 mmHg 74%
    14:00 +4°C° 0 mm 4 mps 740 mmHg 73%
    15:00 +4°C° 0 mm 3 mps 739 mmHg 72%
    16:00 +3°C° 0 mm 3 mps 738 mmHg 77%
    17:00 +3°C° 0 mm 2 mps 738 mmHg 82%
    18:00 +2°C° 0 mm 2 mps 737 mmHg 87%
    19:00 +1°C° 0 mm 3 mps 736 mmHg 87%
    20:00 +1°C° 0 mm 3 mps 736 mmHg 88%
    21:00 0°C° 0 mm 4 mps 735 mmHg 88%
    22:00 0°C° 0.1 mm 5 mps 734 mmHg 91%
    23:00 -1°C° 0.1 mm 6 mps 732 mmHg 93%

    29 February, Saturday

    Time Temperature Precipitation Wind Pressure Humidity
    00:00 -1°C° 0.1 mm 7 mps 731 mmHg 95%
    01:00 0°C° 1.4 mm 8 mps 729 mmHg 95%
    02:00 0°C° 1.4 mm 9 mps 727 mmHg 95%
    03:00 +1°C° 1.4 mm 9 mps 725 mmHg 95%
    04:00 +1°C° 2.7 mm 9 mps 723 mmHg 95%
    05:00 +2°C° 2.7 mm 9 mps 721 mmHg 95%
    06:00 +2°C° 2.7 mm 8 mps 720 mmHg 95%
    07:00 +3°C° 1.3 mm 7 mps 719 mmHg 95%
    08:00 +3°C° 1.3 mm 6 mps 718 mmHg 96%
    09:00 +5°C° 1.3 mm 4 mps 717 mmHg 97%
    10:00 +3°C° 0.5 mm 5 mps 717 mmHg 89%
    11:00 +2°C° 0.5 mm 7 mps 717 mmHg 81%
    12:00 +1°C° 0.5 mm 8 mps 717 mmHg 73%
    13:00 +2°C° 0 mm 7 mps 716 mmHg 70%
    14:00 +2°C° 0 mm 7 mps 716 mmHg 68%
    15:00 +2°C° 0 mm 7 mps 715 mmHg 66%
    16:00 +1°C° 0.1 mm 6 mps 714 mmHg 73%
    17:00 +1°C° 0.1 mm 6 mps 713 mmHg 81%
    18:00 -1°C° 0.1 mm 6 mps 712 mmHg 88%
    19:00 -1°C° 0.4 mm 6 mps 711 mmHg 90%
    20:00 -1°C° 0.4 mm 6 mps 710 mmHg 92%
    21:00 -1°C° 0.4 mm 6 mps 710 mmHg 94%
    22:00 -1°C° 0.4 mm 6 mps 710 mmHg 94%
    23:00 +1°C° 0.4 mm 6 mps 710 mmHg 94%

    1 March, Sunday

    Time Temperature Precipitation Wind Pressure Humidity
    00:00 +1°C° 0.4 mm 6 mps 710 mmHg 93%
    01:00 0°C° 0.8 mm 7 mps 710 mmHg 93%
    02:00 -1°C° 0.8 mm 8 mps 711 mmHg 92%
    03:00 -1°C° 0.8 mm 9 mps 711 mmHg 92%
    04:00 -1°C° 0.3 mm 8 mps 711 mmHg 91%
    05:00 -1°C° 0.3 mm 8 mps 711 mmHg 90%
    06:00 -1°C° 0.3 mm 7 mps 712 mmHg 89%
    07:00 -1°C° 0 mm 6 mps 712 mmHg 89%
    08:00 0°C° 0 mm 4 mps 712 mmHg 90%
    09:00 +1°C° 0 mm 3 mps 713 mmHg 90%
    10:00 +2°C° 0 mm 3 mps 713 mmHg 86%
    11:00 +3°C° 0 mm 3 mps 713 mmHg 82%
    12:00 +3°C° 0 mm 4 mps 714 mmHg 78%
    13:00 +3°C° 0.3 mm 4 mps 714 mmHg 82%
    14:00 +3°C° 0.3 mm 4 mps 714 mmHg 86%
    15:00 +1°C° 0.3 mm 4 mps 714 mmHg 90%
    16:00 +2°C° 0.8 mm 3 mps 714 mmHg 92%
    17:00 +2°C° 0.8 mm 3 mps 714 mmHg 95%
    18:00 +2°C° 0.8 mm 2 mps 714 mmHg 97%
    19:00 +2°C° 0.4 mm 2 mps 714 mmHg 97%
    20:00 +2°C° 0.4 mm 2 mps 714 mmHg 96%
    21:00 +2°C° 0.4 mm 2 mps 714 mmHg 96%
    22:00 +2°C° 0.3 mm 2 mps 715 mmHg 96%
    23:00 +2°C° 0.3 mm 2 mps 715 mmHg 96%

    2 March, Monday

    Time Temperature Precipitation Wind Pressure Humidity
    00:00 +3°C° 0.3 mm 1 mps 715 mmHg 96%
    01:00 +2°C° 0.3 mm 2 mps 715 mmHg 96%
    02:00 +1°C° 0.3 mm 3 mps 716 mmHg 96%
    03:00 0°C° 0.3 mm 4 mps 716 mmHg 96%
    04:00 0°C° 0.8 mm 4 mps 716 mmHg 95%
    05:00 0°C° 0.8 mm 5 mps 717 mmHg 94%
    06:00 0°C° 0.8 mm 5 mps 717 mmHg 92%
    07:00 0°C° 0.1 mm 5 mps 718 mmHg 91%
    08:00 0°C° 0.1 mm 5 mps 719 mmHg 89%
    09:00 0°C° 0.1 mm 5 mps 719 mmHg 87%
    10:00 +1°C° 0 mm 5 mps 720 mmHg 83%
    11:00 +2°C° 0 mm 5 mps 721 mmHg 79%
    12:00 +3°C° 0 mm 5 mps 722 mmHg 75%
    13:00 +3°C° 0 mm 6 mps 722 mmHg 75%
    14:00 +2°C° 0 mm 6 mps 723 mmHg 74%
    15:00 +2°C° 0 mm 6 mps 724 mmHg 73%
    16:00 +2°C° 0 mm 6 mps 724 mmHg 75%
    17:00 +1°C° 0 mm 5 mps 725 mmHg 77%
    18:00 0°C° 0 mm 5 mps 726 mmHg 78%
    19:00 0°C° 0 mm 5 mps 727 mmHg 78%
    20:00 -2°C° 0 mm 6 mps 728 mmHg 79%
    21:00 -2°C° 0 mm 6 mps 729 mmHg 79%
    22:00 -3°C° 0 mm 6 mps 730 mmHg 77%
    23:00 -3°C° 0 mm 6 mps 731 mmHg 75%
    Show more